sat.trackr.live / text

‹ back to catalog

STARLINK-1265

NORAD 45406 · 2020-019AY

PAYLOAD ACTIVE UNKNOWN

§ Identity

Operator
Country
US
Launch date
2020-03-18
Launch site
AFETR
Launch vehicle
Mass (kg)
RCS (m²)

Purposes: comms

External: N2YO · Heavens-Above · Gunter

§ Orbital elements

Epoch: 2026-05-25T05:29:08.471328Z

Period
93.71 min
Inclination
53.1559°
Eccentricity
0.0005528
Mean motion
15.36614893 rev/d
Perigee alt
452.4 km
Apogee alt
459.9 km
Semi-major
6,834.3 km
B*
1.2799e-3
RAAN
132.1770°
Arg perigee
29.0666°
Mean anomaly
331.0644°
Rev number
34,171

§ Raw data

STARLINK-12651 45406U 20019AY  26145.22857027  .00046339  00000+0  12799-2 0  99962 45406  53.1559 132.1770 0005528  29.0666 331.0644 15.36614893341712

JSON: /api/v1/satellites/45406 · /tle

For live sub-satellite position, see the globe view (requires WebGL).

§ Visibility from observer

Set your observer location to see the next 7 days of passes ≥ 10°. The values pass through the URL so the page stays shareable.

No JS? Fill the form by hand. The geolocation button needs JavaScript.